Radiation Dose at Monitoring Post of Fukushima Daini Nuclear Power Station
Date,Time,MP-1(microSv/h),MP-2(microSv/h),MP-3(microSv/h),MP-4(microSv/h),MP-5(microSv/h),MP-6(microSv/h),MP-7(microSv/h),Wind Direction,Wind Velocity(m/s),Rain
2017/03/15,00:00,0.377,0.235,0.382,0.351,0.324,0.186,0.158,north-northwest,10.4,Yes
2017/03/15,00:10,0.375,0.235,0.381,0.350,0.325,0.187,0.160,north-northwest,10.4,Yes
2017/03/15,00:20,0.374,0.234,0.382,0.350,0.325,0.187,0.157,north,11.7,Yes
2017/03/15,00:30,0.377,0.234,0.382,0.349,0.327,0.187,0.158,north,10.4,Yes
2017/03/15,00:40,0.374,0.237,0.380,0.349,0.324,0.187,0.159,north,10.1,Yes
2017/03/15,00:50,0.374,0.235,0.382,0.350,0.326,0.186,0.159,north,10.8,Yes
2017/03/15,01:00,0.375,0.235,0.380,0.351,0.326,0.187,0.160,north-northwest,10.0,Yes
2017/03/15,01:10,0.373,0.234,0.382,0.351,0.326,0.187,0.159,north,11.2,Yes
2017/03/15,01:20,0.374,0.234,0.380,0.351,0.326,0.186,0.158,north,12.4,Yes
2017/03/15,01:30,0.376,0.235,0.381,0.350,0.325,0.186,0.159,north,13.9,Yes
2017/03/15,01:40,0.374,0.235,0.381,0.350,0.325,0.186,0.159,north,10.8,Yes
2017/03/15,01:50,0.374,0.235,0.382,0.350,0.326,0.187,0.160,north,11.1,Yes
2017/03/15,02:00,0.373,0.235,0.382,0.351,0.324,0.187,0.160,north-northwest,11.9,Yes
2017/03/15,02:10,0.373,0.235,0.382,0.351,0.327,0.187,0.159,north,10.6,Yes
2017/03/15,02:20,0.375,0.234,0.381,0.352,0.326,0.187,0.159,north-northwest,12.0,Yes
2017/03/15,02:30,0.375,0.234,0.382,0.351,0.326,0.187,0.160,north-northwest,11.5,Yes
2017/03/15,02:40,0.373,0.234,0.382,0.351,0.327,0.188,0.160,north-northwest,12.3,Yes
2017/03/15,02:50,0.374,0.235,0.382,0.350,0.326,0.188,0.159,north,12.7,Yes
2017/03/15,03:00,0.372,0.235,0.382,0.351,0.325,0.187,0.159,north,11.5,Yes
2017/03/15,03:10,0.374,0.234,0.381,0.351,0.327,0.187,0.159,north,10.6,Yes
2017/03/15,03:20,0.374,0.234,0.381,0.351,0.325,0.186,0.159,north-northwest,10.1,Yes
2017/03/15,03:30,0.374,0.235,0.381,0.351,0.327,0.187,0.159,north-northwest,10.5,Yes
2017/03/15,03:40,0.374,0.235,0.380,0.350,0.326,0.187,0.159,north-northwest,10.2,Yes
2017/03/15,03:50,0.374,0.235,0.381,0.351,0.326,0.186,0.159,north-northwest,12.6,Yes
2017/03/15,04:00,0.373,0.234,0.383,0.349,0.325,0.187,0.159,north,15.3,Yes
2017/03/15,04:10,0.374,0.233,0.382,0.350,0.325,0.188,0.158,north,13.4,Yes
2017/03/15,04:20,0.374,0.234,0.382,0.351,0.325,0.186,0.159,north-northwest,11.4,Yes
2017/03/15,04:30,0.374,0.234,0.382,0.350,0.326,0.187,0.159,north,13.3,Yes
2017/03/15,04:40,0.374,0.235,0.382,0.351,0.326,0.186,0.158,north,12.5,Yes
2017/03/15,04:50,0.374,0.234,0.382,0.352,0.328,0.186,0.158,north-northwest,14.0,Yes
2017/03/15,05:00,0.374,0.234,0.383,0.352,0.327,0.188,0.158,north-northwest,12.3,Yes
2017/03/15,05:10,0.375,0.234,0.382,0.352,0.328,0.186,0.159,north,12.1,Yes
2017/03/15,05:20,0.373,0.234,0.382,0.351,0.326,0.187,0.159,north,10.9,Yes
2017/03/15,05:30,0.376,0.234,0.380,0.352,0.327,0.186,0.158,north,13.7,Yes
2017/03/15,05:40,0.374,0.234,0.382,0.351,0.325,0.186,0.158,north,14.7,Yes
2017/03/15,05:50,0.373,0.234,0.383,0.351,0.326,0.186,0.159,north-northwest,11.5,Yes
2017/03/15,06:00,0.375,0.234,0.383,0.351,0.326,0.186,0.158,north,13.6,Yes
2017/03/15,06:10,0.376,0.235,0.382,0.352,0.327,0.186,0.158,north,12.7,Yes
2017/03/15,06:20,0.375,0.235,0.382,0.352,0.324,0.187,0.158,north,11.5,Yes
2017/03/15,06:30,0.374,0.235,0.382,0.353,0.327,0.187,0.159,north,12.7,Yes
2017/03/15,06:40,0.373,0.235,0.384,0.350,0.326,0.187,0.158,north,12.5,Yes
2017/03/15,06:50,0.374,0.234,0.381,0.350,0.326,0.187,0.159,north-northwest,11.9,Yes
2017/03/15,07:00,0.373,0.234,0.382,0.352,0.324,0.187,0.158,north,12.4,Yes
2017/03/15,07:10,0.374,0.234,0.382,0.351,0.326,0.187,0.159,north,12.3,Yes
2017/03/15,07:20,0.373,0.234,0.380,0.351,0.325,0.188,0.159,north,13.1,Yes
2017/03/15,07:30,0.373,0.235,0.380,0.350,0.323,0.188,0.159,north,13.0,Yes
2017/03/15,07:40,0.372,0.234,0.381,0.349,0.324,0.187,0.159,north,12.9,Yes
2017/03/15,07:50,0.372,0.234,0.381,0.349,0.323,0.187,0.158,north,12.8,Yes
2017/03/15,08:00,0.371,0.234,0.379,0.348,0.324,0.187,0.159,north,13.0,Yes
2017/03/15,08:10,0.372,0.233,0.380,0.349,0.323,0.187,0.157,north,12.2,Yes
2017/03/15,08:20,0.371,0.234,0.381,0.347,0.323,0.185,0.159,north,13.6,Yes
2017/03/15,08:30,0.371,0.232,0.381,0.348,0.324,0.186,0.158,north-northwest,12.3,Yes
2017/03/15,08:40,0.370,0.232,0.381,0.349,0.322,0.186,0.157,north,12.9,Yes
2017/03/15,08:50,0.372,0.233,0.379,0.348,0.322,0.185,0.158,north,13.9,Yes
2017/03/15,09:00,0.370,0.232,0.380,0.347,0.320,0.186,0.157,north,12.3,Yes
2017/03/15,09:10,0.370,0.233,0.378,0.346,0.320,0.186,0.158,north,12.1,Yes
2017/03/15,09:20,0.367,0.232,0.378,0.345,0.319,0.186,0.157,north-northwest,11.7,Yes
2017/03/15,09:30,0.369,0.231,0.378,0.344,0.318,0.185,0.157,north,11.0,Yes
2017/03/15,09:40,0.367,0.232,0.377,0.345,0.317,0.185,0.156,north,11.3,Yes
2017/03/15,09:50,0.368,0.230,0.378,0.343,0.316,0.185,0.156,north,11.4,Yes
2017/03/15,10:00,0.366,0.231,0.376,0.343,0.314,0.185,0.156,north,11.4,Yes
2017/03/15,10:10,0.365,0.230,0.376,0.341,0.313,0.184,0.155,north,11.1,Yes
2017/03/15,10:20,0.366,0.229,0.376,0.341,0.311,0.184,0.155,north,12.9,Yes
2017/03/15,10:30,0.366,0.228,0.375,0.340,0.311,0.182,0.154,north-northwest,12.9,Yes
2017/03/15,10:40,0.367,0.229,0.376,0.340,0.311,0.183,0.154,north,12.3,Yes
2017/03/15,10:50,0.367,0.229,0.376,0.339,0.311,0.181,0.153,north,12.4,Yes
2017/03/15,11:00,0.368,0.228,0.377,0.338,0.311,0.182,0.153,north,11.5,Yes
2017/03/15,11:10,0.366,0.230,0.377,0.339,0.310,0.181,0.153,north,12.9,Yes
2017/03/15,11:20,0.367,0.229,0.378,0.340,0.311,0.181,0.153,north,11.4,Yes
2017/03/15,11:30,0.368,0.229,0.378,0.341,0.313,0.182,0.153,north,12.9,Yes
2017/03/15,11:40,0.369,0.229,0.380,0.341,0.311,0.181,0.153,north,11.7,Yes
2017/03/15,11:50,0.368,0.229,0.381,0.340,0.312,0.181,0.153,north,12.3,Yes
2017/03/15,12:00,0.367,0.228,0.378,0.341,0.312,0.180,0.152,north-northwest,10.6,Yes
2017/03/15,12:10,0.368,0.230,0.379,0.341,0.312,0.182,0.153,north,12.6,Yes
2017/03/15,12:20,0.369,0.230,0.378,0.343,0.312,0.181,0.153,north,11.2,No
2017/03/15,12:30,0.371,0.229,0.381,0.344,0.314,0.182,0.153,north,12.9,Yes
2017/03/15,12:40,0.369,0.230,0.381,0.343,0.315,0.181,0.154,north-northwest,10.7,No
2017/03/15,12:50,0.370,0.229,0.380,0.345,0.315,0.182,0.155,north,10.4,Yes
2017/03/15,13:00,0.370,0.230,0.380,0.344,0.316,0.182,0.156,north,10.2,No
2017/03/15,13:10,0.371,0.229,0.380,0.345,0.317,0.182,0.155,north,10.2,No
2017/03/15,13:20,0.371,0.229,0.381,0.344,0.318,0.182,0.155,north,8.4,No
2017/03/15,13:30,0.370,0.229,0.381,0.347,0.318,0.183,0.155,north,12.1,Yes
2017/03/15,13:40,0.371,0.228,0.380,0.348,0.319,0.183,0.156,north,10.3,No
2017/03/15,13:50,0.370,0.230,0.381,0.346,0.318,0.184,0.155,north,11.5,No
2017/03/15,14:00,0.371,0.230,0.381,0.346,0.319,0.184,0.155,north-northeast,14.4,Yes
2017/03/15,14:10,0.372,0.231,0.380,0.348,0.322,0.183,0.156,north-northeast,12.6,No
2017/03/15,14:20,0.371,0.229,0.382,0.349,0.322,0.184,0.156,north-northeast,14.3,Yes
2017/03/15,14:30,0.372,0.231,0.381,0.349,0.322,0.184,0.156,north-northeast,13.3,No
2017/03/15,14:40,0.374,0.229,0.382,0.349,0.323,0.184,0.156,north,10.7,No
2017/03/15,14:50,0.372,0.230,0.384,0.350,0.323,0.184,0.157,north,9.0,No
2017/03/15,15:00,0.372,0.231,0.382,0.350,0.325,0.185,0.156,north-northeast,9.8,No
2017/03/15,15:10,0.373,0.230,0.382,0.351,0.325,0.185,0.156,north-northeast,10.4,No
2017/03/15,15:20,0.374,0.231,0.383,0.351,0.324,0.185,0.156,north,10.1,No
2017/03/15,15:30,0.373,0.231,0.383,0.352,0.325,0.184,0.157,north,10.3,No
2017/03/15,15:40,0.373,0.231,0.384,0.352,0.325,0.186,0.157,north,9.4,No
2017/03/15,15:50,0.376,0.231,0.383,0.351,0.325,0.186,0.157,north,8.2,No
2017/03/15,16:00,0.374,0.231,0.384,0.352,0.325,0.185,0.157,north,8.7,No
2017/03/15,16:10,0.376,0.231,0.384,0.352,0.326,0.185,0.158,north,8.1,No
2017/03/15,16:20,0.374,0.231,0.385,0.351,0.325,0.185,0.157,north,8.0,No
2017/03/15,16:30,0.374,0.231,0.384,0.352,0.327,0.186,0.157,north,6.4,No
2017/03/15,16:40,0.375,0.231,0.382,0.352,0.326,0.186,0.157,north,5.9,No
2017/03/15,16:50,0.378,0.231,0.383,0.353,0.325,0.186,0.157,north,6.7,No
2017/03/15,17:00,0.376,0.232,0.384,0.352,0.327,0.186,0.158,north,6.7,No
2017/03/15,17:10,0.374,0.232,0.384,0.352,0.326,0.187,0.157,north,4.6,No
2017/03/15,17:20,0.376,0.232,0.384,0.353,0.326,0.187,0.157,north,5.4,No
2017/03/15,17:30,0.376,0.231,0.383,0.355,0.327,0.186,0.157,north-northwest,7.0,No
2017/03/15,17:40,0.376,0.232,0.385,0.354,0.327,0.187,0.157,north-northwest,5.8,No
2017/03/15,17:50,0.374,0.233,0.385,0.352,0.327,0.185,0.158,north-northwest,6.4,No
2017/03/15,18:00,0.375,0.233,0.384,0.353,0.326,0.186,0.157,north,6.7,No
2017/03/15,18:10,0.378,0.233,0.384,0.356,0.326,0.186,0.158,north-northwest,6.9,No
2017/03/15,18:20,0.376,0.232,0.386,0.353,0.326,0.186,0.157,north-northwest,7.0,No
2017/03/15,18:30,0.377,0.231,0.386,0.354,0.329,0.187,0.158,north-northwest,7.0,No
2017/03/15,18:40,0.376,0.231,0.383,0.353,0.326,0.187,0.157,north-northwest,7.6,No
2017/03/15,18:50,0.376,0.233,0.382,0.355,0.327,0.186,0.158,north-northwest,7.6,No
2017/03/15,19:00,0.376,0.231,0.386,0.353,0.327,0.188,0.159,north-northwest,7.9,No
2017/03/15,19:10,0.377,0.232,0.384,0.354,0.326,0.186,0.157,north,8.2,No
2017/03/15,19:20,0.376,0.232,0.385,0.355,0.327,0.186,0.158,north,7.8,No
2017/03/15,19:30,0.376,0.232,0.385,0.355,0.326,0.187,0.158,north-northwest,7.9,No
2017/03/15,19:40,0.377,0.232,0.385,0.354,0.329,0.188,0.157,north-northwest,8.5,No
2017/03/15,19:50,0.377,0.231,0.384,0.354,0.327,0.187,0.158,north-northwest,8.5,No
2017/03/15,20:00,0.376,0.232,0.385,0.355,0.327,0.186,0.157,north-northwest,8.7,No
2017/03/15,20:10,0.375,0.232,0.385,0.355,0.328,0.188,0.157,north-northwest,8.1,No
2017/03/15,20:20,0.377,0.232,0.385,0.355,0.325,0.187,0.157,north,7.6,No
2017/03/15,20:30,0.377,0.232,0.385,0.354,0.327,0.188,0.157,north-northwest,7.8,No
2017/03/15,20:40,0.377,0.231,0.387,0.354,0.326,0.188,0.158,north-northwest,7.5,No
2017/03/15,20:50,0.376,0.233,0.386,0.355,0.327,0.187,0.158,north-northwest,7.6,No
2017/03/15,21:00,0.377,0.231,0.387,0.354,0.327,0.187,0.158,north-northwest,7.0,No
2017/03/15,21:10,0.377,0.230,0.385,0.354,0.326,0.187,0.157,north-northwest,7.5,No
2017/03/15,21:20,0.376,0.232,0.385,0.355,0.328,0.187,0.159,north-northwest,7.0,No
2017/03/15,21:30,0.377,0.233,0.385,0.355,0.326,0.187,0.158,north-northwest,7.7,No
2017/03/15,21:40,0.377,0.232,0.387,0.357,0.328,0.187,0.158,north-northwest,7.9,No
2017/03/15,21:50,0.379,0.233,0.387,0.353,0.326,0.187,0.157,north-northwest,8.5,No
2017/03/15,22:00,0.377,0.231,0.384,0.354,0.328,0.188,0.157,north-northwest,8.3,No
2017/03/15,22:10,0.378,0.232,0.385,0.355,0.326,0.186,0.158,north,8.1,No
2017/03/15,22:20,0.376,0.231,0.386,0.355,0.327,0.188,0.158,north,8.7,No
2017/03/15,22:30,0.377,0.232,0.384,0.355,0.327,0.187,0.158,north,8.6,No
2017/03/15,22:40,0.378,0.232,0.385,0.356,0.327,0.188,0.159,north,8.3,No
2017/03/15,22:50,0.377,0.232,0.385,0.355,0.326,0.187,0.157,north,7.3,No
2017/03/15,23:00,0.378,0.232,0.385,0.356,0.327,0.187,0.158,north,7.9,No
2017/03/15,23:10,0.378,0.231,0.386,0.355,0.327,0.188,0.159,north,6.8,No
2017/03/15,23:20,0.377,0.232,0.386,0.354,0.327,0.187,0.158,north-northwest,6.7,No
2017/03/15,23:30,0.377,0.233,0.387,0.355,0.328,0.187,0.159,north,6.8,No
2017/03/15,23:40,0.376,0.232,0.386,0.356,0.326,0.188,0.158,north,7.3,No
2017/03/15,23:50,0.377,0.233,0.385,0.355,0.327,0.188,0.158,north,7.5,No
